Home > Weather > Neu-Ulm > Past weeks

Flag for Germany Past Weather in Neu-Ulm, Bavaria, Germany — Yesterday and Last 2 Weeks

Now
81 °F

Passing clouds.


Feels Like: 81 °F
Forecast: 59 / 71 °F
Wind: 12 mph from West

Location: Laupheim Airport

Current Time: Jul 30, 2016 at 3:18:00 PM

Latest Report: Jul 30, 2016 at 2:20 PM


Visibility: N/A

Pressure: 29.98 "Hg

Humidity: 45%

Dew Point: 57 °F

Location of Neu-UlmLocation

Past Weather in Neu-Ulm — Graph

°F

Neu-Ulm Temperature Yesterday

Maximum temperature yesterday: 77 °F (at 3:20 PM)
Minimum temperature yesterday: 61 °F (at 4:20 AM)
Average temperature yesterday: 68 °F

High & Low Weather Summary for the Past Weeks

 TemperatureHumidityPressure
High88 °F (Jul 20, 6:20 PM)100% (Jul 24, 12:20 AM)30.36 "Hg (Jul 24, 12:20 AM)
Low46 °F (Jul 16, 5:20 AM)29% (Jul 20, 7:20 PM)29.95 "Hg (Jul 21, 4:20 AM)
Average68 °F74%30.12 "Hg
* Reported Jul 15 2:20 PM — Jul 30 2:20 PM, Neu-Ulm, Weather by CustomWeather, © 2016

Note: Actual official high and low records may vary slightly from our data, if they occured in-between our weather recording intervals... More about our weather records

Advertising

Neu-Ulm Weather History for the Previous 24 Hours

Scroll right to see more
 ConditionsComfort  
Time TempWeatherWind HumidityBarometerVisibility
2:20 PM
Sat, Jul 30
81 °FPassing clouds.12 mph45%29.98 "HgN/A
1:20 PM79 °FPassing clouds.8 mph54%29.98 "HgN/A
12:20 PM77 °FScattered clouds.6 mph57%30.01 "HgN/A
11:20 AM75 °FScattered clouds.5 mph61%30.01 "HgN/A
10:20 AM72 °FScattered clouds.5 mph69%30.01 "HgN/A
9:20 AM68 °FPassing clouds.5 mph78%30.01 "HgN/A
8:20 AM63 °FPassing clouds.3 mph88%30.04 "HgN/A
7:20 AM61 °FPassing clouds.1 mph88%30.01 "HgN/A
6:20 AM57 °FFog.No wind94%30.01 "HgN/A
5:20 AM57 °FFog.2 mph100%30.04 "HgN/A
4:20 AM57 °FPassing clouds.1 mph94%30.04 "HgN/A
3:20 AM61 °FPassing clouds.2 mph88%30.04 "HgN/A
2:20 AM63 °FPassing clouds.5 mph88%30.04 "HgN/A
1:20 AM64 °FPassing clouds.2 mph83%30.04 "HgN/A
12:20 AM64 °FPassing clouds.2 mph83%30.04 "HgN/A
11:20 PM
Fri, Jul 29
66 °FPassing clouds.2 mph78%30.01 "HgN/A
10:20 PM68 °FPassing clouds.3 mph73%30.01 "HgN/A
9:20 PM72 °FPassing clouds.3 mph61%30.01 "HgN/A
8:20 PM75 °FPassing clouds.6 mph54%30.01 "HgN/A
7:20 PM75 °FPassing clouds.9 mph54%29.98 "HgN/A
6:20 PM77 °FScattered clouds.13 mph51%29.98 "HgN/A
5:20 PM77 °FScattered clouds.10 mph47%30.01 "HgN/A
4:20 PM77 °FScattered clouds.12 mph51%30.01 "HgN/A
3:20 PM77 °FScattered clouds.9 mph51%30.01 "HgN/A
Weather by CustomWeather, © 2016

See weather overviewHow to use our weather pages